Location: Minneapolis
(44.9800°N, 93.2640°W)
Time: 16:18:20
(UTC-05:00)

Iridium 96 - Visible Passes

Search period start: 25 June 2016 00:00
Search period end: 05 July 2016 00:00
Orbit: 776 x 779 km, 86.4° (Epoch: 25 June)

Date Brightness Start Highest point End Pass type
(mag) Time Alt. Az. Time Alt. Az. Time Alt. Az.
25 Jun 6.3 01:14:25 10° N 01:19:23 42° E 01:21:13 31° SE visible
25 Jun 6.9 02:55:40 10° NNW 02:59:50 25° W 03:01:41 20° WSW visible
26 Jun 7.1 00:41:23 10° NNE 00:45:38 24° ENE 00:47:41 19° ESE visible
26 Jun 6.1 02:21:37 10° NNW 02:26:32 43° W 02:28:09 33° SW visible
27 Jun 7.7 00:08:59 10° NE 00:11:44 14° ENE 00:14:09 11° E visible
27 Jun 5.5 01:47:52 10° N 01:53:06 78° W 01:54:37 47° SSW visible
28 Jun 5.8 01:14:22 10° N 01:19:33 60° E 01:21:06 42° SE visible
28 Jun 7.3 02:56:20 10° NW 02:59:45 18° WNW 03:01:34 15° WSW visible
29 Jun 6.6 00:41:08 10° NNE 00:45:53 34° E 00:47:35 27° ESE visible
29 Jun 6.6 02:21:58 10° NNW 02:26:30 31° W 02:28:03 26° WSW visible
30 Jun 7.3 00:08:17 10° NNE 00:12:04 20° ENE 00:14:04 16° ESE visible
30 Jun 5.8 01:48:03 10° NNW 01:53:09 54° W 01:54:32 42° SW visible
30 Jun 7.8 23:36:35 10° NE 23:38:06 11° ENE 23:39:38 10° E visible
01 Jul 5.4 01:14:25 10° N 01:19:41 85° E 01:21:02 51° S visible
01 Jul 7.7 02:57:27 10° NW 02:59:36 13° WNW 03:01:30 10° W visible
02 Jul 6.1 00:41:01 10° N 00:46:05 47° E 00:47:32 37° SE visible
02 Jul 7.1 02:22:29 10° NNW 02:26:26 22° W 02:28:00 19° WSW visible
03 Jul 6.9 00:07:54 10° NNE 00:12:21 27° ENE 00:14:02 23° ESE visible
03 Jul 6.3 01:48:21 10° NNW 01:53:10 38° W 01:54:30 33° WSW visible
03 Jul 7.5 23:35:19 10° NE 23:38:28 16° ENE 23:40:33 13° E visible
04 Jul 5.6 01:14:33 10° N 01:19:45 69° W 01:21:01 50° SSW visible
